Location: Gulgong NSW 2852, Australia
(32.2976°S, 149.5548°E)
Time: 12:17:51
(UTC+11:00)

N. Korean satellite - Pass Details

Date: 08 December 2021
Orbit: 447 x 491 km, 97.3° (Epoch: 23 January)

Event Time Altitude Azimuth Distance (km) Brightness Sun altitude
Rises 04:51:21 0° 42° (NE) 2,483 10.2 -11.0°
Reaches altitude 10° 04:53:43 10° 58° (ENE) 1,627 9.5 -10.5°
Maximum altitude 04:56:23 21° 108° (ESE) 1,130 9.5 -10.1°
Drops below altitude 10° 04:59:06 10° 158° (SSE) 1,668 10.2 -9.6°
Sets 05:01:33 0° 174° (S) 2,567 10.9 -9.2°
